Location: Elbart
(49.6135°N, 11.9134°E)
Time: 04:07:14
(UTC+00:00)

MetOp-A - Pass Details

Date: 09 April 2020
Orbit: 820 x 821 km, 98.5° (Epoch: 06 June)

Event Time Altitude Azimuth Distance (km) Brightness Sun altitude
Exits shadow 19:13:30 - 164° (SSE) 2,811 6.5 -12.4°
Reaches altitude 10° 19:14:30 10° 165° (SSE) 2,412 6.2 -12.5°
Maximum altitude 19:19:52 87° 252° (WSW) 830 4.2 -13.3°
Drops below altitude 10° 19:25:16 10° 345° (NNW) 2,430 7.3 -14.0°
Sets 19:27:37 0° 346° (NNW) 3,367 8.1 -14.4°
